Regional Weather Roundup
Issued by NWS

Home | Current Version | Previous Version | Text Only | Print | Product List | Glossary Off
Versions: 1 2 3 4 5 6 7 8 9 10 11 12 13 14 15 16 17 18 19 20 21 22 23 24 25 26 27 28 29 30 31 32 33 34 35 36 37 38 39 40 41 42 43 44 45 46 47 48 49 50

000
ASUS44 KMEG 121400
RWRTN
TENNESSEE HOURLY STATE WEATHER ROUNDUP
NATIONAL WEATHER SERVICE MEMPHIS TN
800 AM CST FRI FEB 12 2016

TNZ002-004-019-021-049-052-054-088>092-121500-
WEST TENNESSEE

CITY           SKY/WX    TMP DP  RH WIND       PRES   REMARKS
MEMPHIS INTL   MOSUNNY   37  26  64 NE3       30.20R
NWS MEMPHIS      N/A     32 N/A N/A MISG        N/A
JACKSON        SUNNY     34  25  69 N3        30.19S
DYERSBURG      PTSUNNY   32  25  74 CALM      30.23R
UNION CITY     CLOUDY    30  23  74 N3        30.20R
PARIS          CLOUDY    30  19  64 NE6       30.19S WCI  24
LEXINGTON      SUNNY     32  21  64 N3        30.17R
$$

TNZ008-025-027-028-033-062-065-066-121500-
NORTH MIDDLE TENNESSEE

CITY           SKY/WX    TMP DP  RH WIND       PRES   REMARKS
NASHVILLE      CLOUDY    34  23  64 CALM      30.19S
CLARKSVILLE    CLOUDY    30  25  81 N6        30.20S WCI  24
COOKEVILLE     CLOUDY    30  30 100 CALM      30.15R
CROSSVILLE     LGT SNOW  31  28  89 VRB3      30.11F FOG
$$

TNZ061-075-076-078-094-096-097-121500-
SOUTH MIDDLE TENNESSEE

CITY           SKY/WX    TMP DP  RH WIND       PRES   REMARKS
TULLAHOMA      MOSUNNY   32  28  86 CALM      30.15R
WINCHESTER     SUNNY     36  28  75 CALM      30.13F
MCMINNVILLE    CLOUDY    34  28  80 NE6       30.14F WCI  29
COLUMBIA       PTSUNNY   34  28  80 CALM      30.15S
SHELBYVILLE    CLOUDY    36  27  69 CALM      30.17R
$$

TNZ017-018-042-046-047-121500-
NORTHEAST TENNESSEE

CITY           SKY/WX    TMP DP  RH WIND       PRES   REMARKS
TRI CITIES     FLURRIES  29  17  61 CALM      30.13S
$$

TNZ012-013-036-069-073-074-121500-
CENTRAL EAST TENNESSEE

CITY           SKY/WX    TMP DP  RH WIND       PRES   REMARKS
KNOXVILLE      SNOW      29  28  96 W3        30.16R VSB 1/2
OAK RIDGE      LGT SNOW  30  27  88 CALM      30.18S FOG
GATLINBURG     CLOUDY    28  27  93 CALM      30.15R VSB 1/2
$$

TNZ083-085-099-121500-
SOUTHEAST TENNESSEE

CITY           SKY/WX    TMP DP  RH WIND       PRES   REMARKS
CHATTANOOGA    CLOUDY    35  24  64 CALM      30.16F
$$

SKY/WX REPORTED AS FAIR MEANS FEW OR NO CLOUDS BELOW
12 THOUSAND FEET.




USA.gov is the U.S. government's official web portal to all federal, state and local government web resources and services.